Retour au catalogue

METEOR 2-5 DEB

ActifPO
NORAD 36923·DEBRIS·🇷🇺 Russia

Lancé Oct 31, 1979 depuis Plesetsk Cosmodrome

Loading…

Prochains Passages (prochaines 24 heures)

TLE

VieillissantSource: Space-Track

Époque: Sep 9, 2026, 00:08 UTC

1 36923U 79095BQ  26252.00564970  .00008048  00000-0  18030-2 0  9995
2 36923  81.1886 349.8117 0005013 242.0770 117.9919 14.56567779 37588

Suivez METEOR 2-5 DEB en temps réel avec AllMySat

Download on the App Store